Weather History for Burlington Piers, ON

Change the Weather History Date:

Tuesday, October 25, 2011

  Actual Average Record
Temperature  
Mean Temperature 50 °F -  
Max Temperature 56 °F - - ()
Min Temperature 43 °F - - ()
Degree Days  
Heating Degree Days 16    
Moisture  
Dew Point 39 °F    
Average Humidity 71    
Maximum Humidity 88    
Minimum Humidity 34    
Precipitation  
Precipitation 0.00 in - - ()
Sea Level Pressure  
Sea Level Pressure 30.08 in    
Wind  
Wind Speed 5 mph ()    
Max Wind Speed 13 mph    
Max Gust Speed -    
T = Trace of Precipitation, MM = Missing Value Source: Averaged Metar Reports

Daily Weather History Graph

Daily Weather History Graph

Search for Another Location

Airport:

Trip Planner

Search our weather history database for the weather conditions in past years. The results will help you decide how hot, cold, wet, or windy it might be!

Date:

Astronomy

Oct. 25, 2011 Rise Set
Actual Time 7:44 AM EDT 6:20 PM EDT
Civil Twilight 7:15 AM EDT 6:50 PM EDT
Nautical Twilight 6:42 AM EDT 7:23 PM EDT
Astronomical Twilight 6:09 AM EDT 7:56 PM EDT
Moon 6:14 AM EDT (10/25) 5:21 PM EDT (10/25)
Length of Visible Light 11h 34m
Length of Day
10h 35m
Waning Crescent, 2% of the Moon is Illuminated
Oct 25
Waning Crescent
Oct 26
New
Nov 2
First Quarter
Nov 10
Full
Nov 18
Last Quarter

Hourly Weather History & Observations

Time (EDT) Temp. Windchill Dew Point Humidity Pressure Visibility Wind Dir Wind Speed Gust Speed Precip Events Conditions
12:00 AM 49.5 °F - 36.7 °F 61% 30.02 in - WSW 4.6 mph - N/A   Unknown
1:00 AM 48.7 °F - 37.4 °F 65% 30.03 in - WSW 4.6 mph - N/A   Unknown
2:00 AM 47 °F - 37 °F 60% 30.04 in - WSW 4.6 mph - -  
2:00 AM 47.5 °F - 37.4 °F 68% 30.04 in - WSW 4.6 mph - N/A   Unknown
3:00 AM 46.6 °F - 36.7 °F 68% 30.06 in - WSW 4.6 mph - N/A   Unknown
4:00 AM 45.9 °F 43.6 °F 37.2 °F 72% 30.08 in - WSW 4.6 mph - N/A   Unknown
5:00 AM 45.3 °F 42.3 °F 36.9 °F 72% 30.11 in - WSW 5.8 mph - N/A   Unknown
7:00 AM 44.1 °F 40.1 °F 36.7 °F 75% 30.12 in - WSW 6.9 mph - N/A   Unknown
8:00 AM 43 °F - 37 °F 72% 30.13 in - West 5.8 mph - -  
8:00 AM 43.0 °F 39.5 °F 37.0 °F 80% 30.13 in - West 5.8 mph - N/A   Unknown
9:00 AM 44.6 °F 40.7 °F 37.2 °F 75% 30.13 in - WSW 6.9 mph - N/A   Unknown
10:00 AM 46.9 °F - 39.2 °F 74% 30.13 in - SW 6.9 mph - N/A   Unknown
11:00 AM 50.0 °F - 39.7 °F 68% 30.12 in - SW 6.9 mph - N/A   Unknown
12:00 PM 52.7 °F - 41.0 °F 64% 30.11 in - SW 6.9 mph - N/A   Unknown
1:00 PM 55.0 °F - 39.0 °F 55% 30.10 in - WSW 8.1 mph - N/A   Unknown
2:00 PM 56 °F - 35 °F 34% 30.08 in - WSW 8.1 mph - -  
2:00 PM 55.8 °F - 35.4 °F 46% 30.08 in - WSW 8.1 mph - N/A   Unknown
4:00 PM 50.9 °F - 40.6 °F 68% 30.08 in - WSW 5.8 mph - N/A   Unknown
5:00 PM 49.3 °F - 43.2 °F 79% 30.07 in - West 2.3 mph - N/A   Unknown
6:00 PM 48.7 °F - 42.3 °F 78% 30.06 in - NNW 3.5 mph - N/A   Unknown
7:00 PM 46.9 °F - 43.2 °F 87% 30.05 in - ENE 8.1 mph - N/A   Unknown
8:00 PM 46 °F - 42 °F 82% 30.04 in - NE 6.9 mph - -  
8:00 PM 46.4 °F 42.9 °F 42.3 °F 85% 30.04 in - NE 6.9 mph - N/A   Unknown
9:00 PM 46.0 °F 41.4 °F 42.6 °F 88% 30.03 in - NNE 9.2 mph - N/A   Unknown
10:00 PM 46.0 °F 40.2 °F 42.8 °F 88% 30.02 in - NNE 12.7 mph - N/A   Unknown